EHI
0 0 0 0 0 0 0 0 0 0 0 0 0 0 0 0 0 0 0 0 0 0 0 0 0 0 0 0 0 0 0 0 0 0 0 0 0 0 0 0 0 0 0
0 0 0 0 0 0 0 0 0 0 0 0 0 0 0 0 0 0 0 0 0 0 0 0 0 0 0 0 0 0 0 0 0 0 0 0 0 0 0 0 0 0 0
0 0 0 0 0 0 0 0 0 0 0 0 0 0 0 0 0 0 0 0 0 0 0 0 0 0 0 0 0 0 0 0 0 0 0 0 0 0 0 0 0 0 0
0 0 0 0 0 0 0 0 0 0 0 0 0 0 0 0 0 0 0 0 0 0 0 0 0 0 0 0 0 0 0 0 0 0 0 0 0 0 0 0 0 0 0
0 0 0 0 0 0 0 0 0 0 0 0 0 0 0 0 0 0 0 0 0 0 0 0 0 0 0 0 0 0 0 0 0 0 0 0 0 0 0 0 0 0 0
0 0 0 0 0 0 0 0 0 0 0 0 0 0 0 0 0 0 0 0 0 0 0 0 0 0 0 0 0 0 0 0 0 0 0 0 0 0 0 0 0 0 0
0 0 0 0 0 0 0 0 0 0 0 0 0 0 0 0 0 0 0 0 0 0 0 0 0 0 0 0 0 0 0 0 0 0 0 0 0 0 0 0 0 0 0
0 0 0 0 0 0 0 0 0 0 0 0 0 0 0 0 0 0 0 0 0 0 0 0 0 0 0 0 0 0 0 0 0 0 0 0 0 0 0 0 0 0 0
0 0 0 0 0 0 0 0 0 0 0 0 0 0 0 0 0 0 0 0 0 0 0 0 0 0 0 0 0 0 0 0 0 0 0 0 0 0 0 0 0 0 0
0 0 0 0 0 0 0 0 0 0 0 0 0 0 0 0 0 0 0 0 0 0 0 0 0 0 0 0 0 0 0 0 0 0 0 0 0 0 0 0 0 0 0
0 0 0 0 0 0 0 0 0 0 0 0 0 0 0 0 0 0 0 0 0 0 0 0 0 0 0 0 0 0 0 0 0 0 0 0 0 0 0 0 0 0 0
0 0 0 0 0 0 0 0 0 0 0 0 0 0 0 0 0 0 0 0 0 0 0 0 0 0 0 0 0 0 0 0 0 0 0 0 0 0 0 0 0 0 0
0 0 0 0 0 0 0 0 0 0 0 0 0 0 0 0 0 0 0 0 0 0 0 0 0 0 0 0 0 0 0 0 0 0 0 0 0 0 0 0 0 0 0
0 0 0 0 0 0 0 0 0 0 0 0 0 0 0 0 0 0 0 0 0 0 0 0 0 0 0 0 0 0 0 0 0 0 0 0 0 0 0 0 0 0 0
0 0 0 0 0 0 0 0 0 0 0 0 0 0 0 0 0 0 0 0 0 0 0 0 0 0 0 0 0 0 0 0 0 0 0 0 0 0 0 0 0 0 0
0 0 0 0 0 0 0 0 0 0 0 0 0 0 0 0 0 0 0 0 0 0 0 0 0 0 0 0 0 0 0 0 0 0 0 0 0 0 0 0 0 0 0
0 0 0 0 0 0 0 0 0 0 0 0 0 0 0 0 0 0 0 0 0 0 0 0 0 0 0 0 0 0 0 0 0 0 0 0 0 0 0 0 0 0 0
0 0 0 0 0 0 0 0 0 0 0 0 0 0 0 0 0 0 0 0 0 0 0 0 0 0 0 0 0 0 0 0 0 0 0 0 0 0 0 0 0 0 0
0 0 0 0 0 0 0 0 0 0 0 0 0 0 0 0 0 0 0 0 0 0 0 0 0 0 0 0 0 0 0 0 0 0 0 0 0 0 0 0 0 0 0
0 0 0 0 0 0 0 0 0 0 0 0 0 0 0 0 0 0 0 0 0 0 0 0 0 0 0 0 0 0 0 0 0 0 0 0 0 0 0 0 0 0 0
0 0 0 0 0 0 0 0 0 0 0 0 0 0 0 0 0 0 0 0 0 0 0 0 0 0 0 0 0 0 0 0 0 0 0 0 0 0 0 0 0 0 0
0 0 0 0 0 0 0 0 0 0 0 0 0 0 0 0 0 0 0 0 0 0 0 0 0 0 0 0 0 0 0 0 0 0 0 0 0 0 0 0 0 0 0
0 0 0 0 0 0 0 0 0 0 0 0 0 0 0 0 0 0 0 0 0 0 0 0 0 0 0 0 0 0 0 0 0 0 0 0 0 0 0 0 0 0 0
0 0 0 0 0 0 0 0 0 0 0 0 0 0 0 0 0 0 0 0 0 0 0 0 0 0 0 0 0 0 0 0 0 0 0 0 0 0 0 0 0 0 0
0 0 0 0 0 0 0 0 0 0 0 0 0 0 0 0 0 0 0 0 0 0 0 0 0 0 0 0 0 0 0 0 0 0 0 0 0 0 0 0 0 0 0
0 0 0 0 0 0 0 0 0 0 0 0 0 0 0 0 0 0 0 0 0 0 0 0 0 0 0 0 0 0 0 0 0 0 0 0 0 0 0 0 0 0 0
Wind_Speed
14 13 12 12 12 11 10 10 10 9 10 11 11 11 10 10 9 9 8 8 8 7 6 6 6 5 4 3 3 3 3 3 5 4 2 2 2 3 3 2 3 4 5
12 12 12 11 11 11 10 10 10 9 9 10 10 10 9 9 9 9 9 8 8 8 7 7 6 4 5 4 3 4 3 3 3 5 3 2 3 3 3 3 4 4 4
11 12 12 12 11 11 10 9 9 9 9 9 9 10 9 9 9 8 8 8 8 7 7 7 6 6 5 4 4 4 3 3 3 3 4 2 2 2 2 3 4 4 5
11 11 12 12 12 11 10 9 9 9 9 9 9 9 8 8 8 7 7 7 6 6 6 6 6 6 6 5 4 4 3 2 2 3 3 3 2 2 2 3 4 3 5
10 11 11 10 10 10 10 9 9 9 8 8 8 8 8 7 7 7 7 6 6 5 5 4 5 5 5 5 3 3 3 2 2 2 3 2 3 2 3 2 4 4 5
9 9 9 10 10 10 10 9 9 8 8 8 8 8 8 6 9 11 8 6 6 6 5 4 4 4 5 5 5 5 5 4 3 3 3 3 4 3 2 3 3 4 4
9 9 10 10 10 10 10 10 9 9 8 8 8 8 7 8 11 12 10 6 5 5 5 5 3 3 4 3 4 4 4 5 4 3 3 4 4 3 2 3 3 4 5
9 9 9 10 10 10 10 10 9 8 8 8 8 8 7 8 12 12 11 6 5 5 5 5 5 4 4 4 3 2 2 2 3 2 3 3 2 2 2 2 3 4 4
9 10 10 10 11 11 11 10 8 8 8 7 7 8 7 7 12 12 11 5 4 4 4 4 4 4 4 4 3 2 1 2 2 3 3 3 4 4 4 2 3 4 5
9 9 10 10 11 11 11 9 7 8 8 7 7 7 7 7 11 12 11 5 5 4 3 3 4 4 5 5 3 3 2 2 1 1 2 3 2 3 4 2 1 3 4
8 8 9 9 10 10 9 8 9 8 8 7 7 6 6 7 10 12 11 5 5 5 4 3 3 5 5 4 3 2 2 1 1 0 1 1 2 1 2 1 1 1 3
8 8 9 9 8 9 10 9 9 9 9 8 7 6 4 5 7 9 10 8 6 5 4 3 3 5 4 3 2 0 1 1 1 1 1 1 1 2 2 2 2 2 2
9 9 9 9 8 9 10 10 9 8 8 7 7 6 5 4 6 10 10 9 7 4 3 6 6 6 4 2 1 1 1 1 1 0 1 1 1 1 1 2 2 3 3
10 9 9 9 9 8 7 7 8 8 8 7 7 7 6 5 5 5 5 5 7 5 4 5 6 5 3 2 1 1 1 1 1 1 1 1 1 1 1 1 2 3 3
10 9 9 8 9 8 6 5 6 5 8 9 8 8 8 7 7 10 7 5 5 5 5 3 2 2 1 1 1 1 1 1 1 1 1 1 2 2 2 2 2 2 2
10 10 8 8 8 8 8 6 7 7 9 9 9 8 6 8 13 12 10 10 10 10 5 3 2 2 2 2 1 0 0 0 0 1 1 1 1 2 2 2 2 2 3
10 10 8 8 8 8 8 9 8 7 10 11 12 12 11 13 14 13 12 11 10 9 4 3 2 2 2 2 1 1 0 0 0 0 0 1 1 1 2 3 3 3 3
9 10 10 8 8 8 8 8 8 9 8 5 7 12 13 14 14 13 13 9 5 4 3 3 3 2 2 2 2 1 1 0 0 0 0 1 1 1 2 2 3 3 3
9 8 8 8 7 8 8 8 7 8 8 7 6 7 11 12 12 12 10 4 5 4 3 3 3 3 2 2 2 1 1 1 1 0 1 1 1 1 2 2 3 6 4
7 11 10 8 8 8 8 8 8 8 8 7 7 6 7 6 5 5 4 3 4 4 3 3 3 3 3 2 2 2 1 1 1 1 1 1 1 1 2 2 2 3 3
8 9 12 9 7 8 8 8 8 8 7 7 6 7 10 6 6 6 4 4 4 4 4 3 3 3 3 2 2 2 2 1 1 1 1 1 1 1 2 2 2 2 3
7 8 8 8 7 7 7 7 8 8 8 8 6 7 11 5 4 4 4 3 3 3 3 4 3 3 3 3 3 3 2 2 1 1 1 1 1 1 1 2 2 2 2
8 9 8 7 7 10 9 7 7 8 8 7 7 6 6 5 4 4 4 3 3 3 3 3 3 3 2 2 3 3 3 2 2 2 2 1 1 1 1 1 2 2 2
8 9 9 8 8 8 8 7 7 7 8 7 7 6 5 5 4 4 4 3 3 3 3 3 3 4 4 3 2 2 2 2 2 2 2 2 1 1 1 1 2 2 2
8 8 9 8 8 8 8 8 7 7 7 7 6 6 5 5 5 4 4 3 4 3 3 3 3 3 4 4 3 2 3 3 2 2 2 2 2 1 1 1 1 1 1
7 8 8 7 7 7 8 8 7 7 7 6 6 5 5 5 5 4 4 4 4 3 3 3 3 3 4 3 3 4 4 3 3 3 2 2 2 1 1 1 2 1 1
Wind_Direction
186 186 186 188 186 187 187 186 182 180 179 180 183 185 187 189 186 186 190 186 191 192 188 194 202 194 197 201 200 207 214 208 244 267 258 262 258 269 284 279 277 277 287
182 181 183 181 180 184 187 183 179 178 178 178 176 179 185 186 185 187 189 187 188 191 192 193 202 193 198 197 200 212 217 211 223 262 275 272 264 267 269 279 288 289 283
174 176 177 178 180 183 182 178 176 175 173 172 172 177 182 183 184 186 186 187 190 191 190 194 197 188 202 202 201 208 217 227 227 249 270 269 273 289 294 291 293 294 298
168 171 176 179 179 178 175 174 175 172 170 169 171 174 175 176 179 180 179 180 183 185 187 189 188 190 200 196 199 209 215 227 239 251 264 275 279 290 298 294 301 295 297
166 171 175 172 168 167 169 170 170 168 167 164 164 167 169 171 175 172 173 174 176 178 179 181 182 184 190 189 191 200 200 215 237 252 263 279 282 297 287 287 295 300 294
166 170 165 163 163 165 166 163 161 162 162 161 166 166 167 167 163 164 165 169 170 173 175 175 175 178 187 199 208 208 204 206 220 233 253 262 269 271 285 297 302 315 307
165 165 163 162 163 162 159 160 163 164 159 161 164 163 164 162 159 161 164 162 166 173 173 170 168 177 178 190 209 218 226 236 233 226 243 253 263 268 277 282 288 290 285
163 165 164 162 161 157 157 162 162 157 159 162 162 161 158 158 159 160 160 160 158 167 170 167 170 177 180 174 174 201 233 242 245 234 231 245 255 263 248 266 281 294 288
168 169 167 162 160 159 161 161 155 151 153 155 156 157 157 156 158 158 155 157 156 162 160 160 165 171 176 170 171 198 239 276 293 288 295 305 319 326 338 352 332 323 310
172 169 163 161 161 162 160 153 145 145 147 145 147 153 154 153 156 158 157 157 158 157 151 153 160 164 167 166 173 183 215 251 282 323 324 328 334 332 338 338 303 307 311
160 158 157 157 158 155 148 143 142 140 140 143 142 140 145 148 156 160 162 161 162 160 160 163 168 164 162 166 170 185 222 230 172 123 330 329 336 336 331 324 308 287 292
150 151 152 152 149 146 143 143 145 145 145 145 139 135 135 142 148 158 159 154 149 154 162 159 153 152 154 162 174 228 2 48 87 62 360 322 318 313 311 310 307 301 280
148 150 149 144 144 146 148 149 148 151 151 152 151 152 147 140 145 150 155 150 140 137 136 138 139 143 146 155 148 113 87 90 98 75 302 296 297 302 324 329 327 320 303
152 151 147 146 144 143 146 151 155 159 157 156 158 157 149 145 147 151 153 146 135 128 124 128 128 131 128 126 118 129 120 138 136 206 287 316 342 348 335 327 322 323 317
153 150 147 146 145 141 136 142 152 161 164 161 165 162 161 166 168 158 154 155 151 144 131 119 119 131 134 129 106 96 84 72 31 18 5 348 341 338 326 326 317 317 312
154 153 151 148 145 141 133 109 89 116 129 134 138 142 144 147 147 150 148 143 141 141 130 140 152 158 165 162 149 105 53 65 59 30 7 339 332 327 321 322 323 316 311
160 157 152 150 149 148 147 142 130 101 101 117 129 135 138 141 143 144 143 140 143 142 133 150 161 170 169 162 161 163 178 121 105 87 325 317 324 323 322 320 321 320 316
156 154 153 153 151 152 152 149 146 143 137 121 123 134 136 139 141 143 142 134 142 146 149 161 167 170 170 168 168 167 167 163 169 223 276 290 301 311 316 315 314 313 315
155 152 149 146 146 146 144 142 140 140 137 134 126 130 136 137 139 146 145 143 157 163 159 159 161 163 166 162 162 167 176 192 197 219 264 281 277 296 304 306 308 318 322
150 147 146 146 145 145 144 143 143 142 142 146 150 147 142 136 144 156 157 151 156 161 160 162 163 163 165 165 167 169 173 194 203 225 252 264 269 279 290 296 304 311 308
144 144 143 142 146 148 147 147 146 145 147 148 150 156 158 154 160 163 164 163 164 164 162 162 163 165 165 164 166 171 178 199 212 221 239 259 269 286 288 290 298 303 309
143 144 144 144 142 143 142 141 142 143 145 144 142 150 155 145 153 157 160 161 159 157 158 159 164 168 169 170 169 170 182 199 211 211 227 249 267 278 284 290 300 309 316
137 137 135 135 136 139 136 138 141 142 144 145 146 148 152 153 155 154 154 152 149 150 150 150 154 158 158 160 164 168 182 199 202 193 200 226 254 268 281 288 292 305 315
138 139 139 138 137 139 140 141 141 141 142 143 146 149 152 151 148 147 145 142 142 144 147 151 156 161 159 156 158 165 180 189 181 182 185 202 234 256 270 283 289 298 305
135 137 138 139 139 139 139 139 139 139 140 142 146 146 145 143 142 142 142 143 144 145 148 149 152 158 164 170 174 184 208 216 216 193 177 187 209 229 251 268 279 291 297
129 130 131 133 135 137 139 140 140 139 140 142 144 145 146 146 145 144 144 143 144 147 149 153 158 160 164 171 183 200 220 226 227 225 179 170 186 209 222 245 261 270 281